EW2985 Weather Reports


Display with metric or nautical units.
time (UTC)temp
F
wind
direction
speed
MPH
gust
MPH
rain 1hr
in
rain 24hr
in
rain mn
in
humidity
%
barometer
mb
20260510053029 50 330 0.0 0.0 0.00 0.13 0.00 83 1009.9
20260510051529 50 330 0.0 0.0 0.00 0.13 0.00 83 1010.1
20260510050128 50 330 0.0 0.0 0.00 0.13 0.00 83 1010.1
20260510044533 51 330 0.0 0.0 0.00 0.13 0.00 84 1010.1
20260510043025 51 330 0.0 0.0 0.00 0.13 0.00 83 1010.2
20260510041524 51 330 0.0 0.0 0.00 0.13 0.00 84 1010.3
20260510040021 52 330 0.0 0.0 0.00 0.13 0.00 84 1010.2
20260510034518 52 330 0.0 0.0 0.00 0.13 0.13 84 1010.3
20260510033016 53 330 0.0 0.0 0.00 0.13 0.13 84 1010.3
20260510031520 53 330 0.0 0.0 0.00 0.13 0.13 84 1010.3
20260510030020 53 330 0.0 0.0 0.00 0.13 0.13 84 1010.3
20260510024516 53 330 0.0 0.0 0.00 0.13 0.13 85 1010.1
20260510023011 53 330 0.0 0.0 0.00 0.13 0.13 85 1010.0
20260510021514 54 330 0.0 0.0 0.00 0.13 0.13 85 1010.1
20260510020011 54 330 0.0 0.0 0.00 0.13 0.13 85 1009.9
20260510014510 54 330 0.0 0.0 0.00 0.13 0.13 85 1009.7
20260510013009 55 330 0.0 0.0 0.00 0.13 0.13 85 1009.7
20260510011510 56 330 0.0 0.0 0.00 0.13 0.13 84 1009.3
20260510010009 56 330 0.0 0.0 0.00 0.13 0.13 84 1009.2
20260510004508 57 330 0.0 0.0 0.00 0.13 0.13 83 1009.2
20260510003019 58 330 0.0 0.0 0.00 0.13 0.13 82 1009.0
20260510001507 59 330 0.0 0.0 0.00 0.13 0.13 80 1008.7
20260510000006 61 330 0.0 0.0 0.00 0.13 0.13 78 1008.7
20260509234512 63 330 0.0 0.0 0.00 0.13 0.13 74 1008.7
20260509233005 65 330 0.0 1.0 0.00 0.13 0.13 69 1008.5
20260509231505 67 330 0.0 1.0 0.00 0.13 0.13 66 1008.7
20260509230004 68 330 0.0 1.0 0.00 0.13 0.13 66 1008.7
20260509224500 66 330 0.0 1.0 0.00 0.13 0.13 69 1008.7
20260509223100 64 330 0.0 1.0 0.00 0.13 0.13 72 1008.7
20260509221559 64 330 0.0 1.0 0.00 0.13 0.13 72 1008.8
20260509220108 65 330 0.0 1.0 0.00 0.13 0.13 72 1008.9
20260509214556 65 340 0.0 0.0 0.00 0.13 0.13 72 1009.0
20260509213056 63 341 0.0 0.0 0.00 0.13 0.13 73 1009.2
20260509211557 63 340 0.0 1.0 0.00 0.13 0.13 73 1009.0
20260509210057 64 340 0.0 1.0 0.00 0.13 0.13 73 1009.0
20260509204556 64 340 0.0 1.0 0.00 0.13 0.13 73 1009.0
20260509203124 64 340 0.0 1.0 0.00 0.13 0.13 70 1009.1
20260509201606 65 340 0.0 1.0 0.00 0.13 0.13 67 1009.2
20260509200056 66 342 0.0 1.0 0.00 0.13 0.13 69 1009.3
20260509194546 65 293 0.0 1.0 0.00 0.13 0.13 74 1009.4
20260509193046 63 297 0.0 1.0 0.00 0.13 0.13 77 1009.7
20260509191554 62 299 0.0 1.0 0.00 0.13 0.13 75 1009.6
20260509190038 62 269 0.0 0.0 0.00 0.13 0.13 79 1009.8
20260509184535 60 267 0.0 0.0 0.00 0.13 0.13 80 1010.1
20260509183033 60 264 0.0 0.0 0.00 0.13 0.13 80 1010.5
20260509181537 60 263 0.0 0.0 0.00 0.13 0.13 80 1010.7
20260509180032 59 262 0.0 0.0 0.00 0.13 0.13 78 1010.7
20260509174531 59 263 0.0 1.0 0.00 0.13 0.13 77 1011.0
20260509173030 60 263 0.0 1.0 0.00 0.13 0.13 77 1010.9
20260509171529 60 264 0.0 1.0 0.00 0.13 0.13 77 1011.1
20260509170027 59 267 0.0 1.0 0.00 0.13 0.13 77 1011.2
20260509164525 59 253 0.0 1.0 0.00 0.13 0.13 79 1011.2
20260509163025 59 253 0.0 1.0 0.02 0.13 0.13 79 1011.4
20260509161525 57 250 0.0 0.0 0.05 0.13 0.13 84 1011.1
20260509160024 56 251 0.0 0.0 0.08 0.13 0.13 85 1010.5
20260509154523 55 250 0.0 1.0 0.12 0.13 0.13 84 1011.0
20260509153023 55 250 0.0 1.0 0.11 0.11 0.11 84 1011.7
20260509151522 56 250 0.0 1.0 0.08 0.08 0.08 84 1011.9
20260509150021 57 250 0.0 1.0 0.04 0.04 0.04 81 1011.9
20260509144526 58 200 0.0 2.0 0.01 0.01 0.01 78 1012.0
20260509143020 58 239 0.0 3.0 0.00 0.00 0.00 74 1011.4
20260509141517 59 259 0.0 2.0 0.00 0.00 0.00 71 1011.3
20260509140017 59 120 0.0 1.0 0.00 0.00 0.00 72 1010.9
20260509134518 59 229 0.0 3.0 0.00 0.00 0.00 72 1011.0
20260509133016 59 243 1.0 3.0 0.00 0.00 0.00 70 1010.9
20260509131514 59 252 0.0 2.0 0.00 0.00 0.00 71 1010.7
20260509130018 59 222 0.0 2.0 0.00 0.00 0.00 70 1010.8
20260509124510 58 250 0.0 2.0 0.00 0.00 0.00 70 1010.8
20260509123010 58 218 0.0 2.0 0.00 0.00 0.00 68 1010.9
20260509121508 58 234 0.0 0.0 0.00 0.00 0.00 69 1010.6
20260509120006 57 233 0.0 0.0 0.00 0.00 0.00 70 1010.7
20260509114506 56 233 0.0 0.0 0.00 0.00 0.00 71 1010.7
20260509113008 56 234 0.0 0.0 0.00 0.00 0.00 73 1010.5
20260509111503 56 232 0.0 0.0 0.00 0.00 0.00 71 1010.4
20260509110002 55 232 0.0 0.0 0.00 0.00 0.00 74 1010.5
20260509104502 55 234 0.0 0.0 0.00 0.00 0.00 74 1010.5
20260509103000 55 232 0.0 0.0 0.00 0.00 0.00 74 1010.2
20260509101501 54 232 0.0 0.0 0.00 0.00 0.00 74 1010.2
20260509100100 54 232 0.0 0.0 0.00 0.00 0.00 76 1010.1
20260509094558 54 232 0.0 0.0 0.00 0.00 0.00 78 1010.2
20260509093057 55 232 0.0 0.0 0.00 0.00 0.00 77 1010.2
20260509091606 55 232 0.0 0.0 0.00 0.00 0.00 75 1010.3
20260509090055 55 232 0.0 0.0 0.00 0.00 0.00 75 1010.4
20260509084553 55 233 0.0 0.0 0.00 0.00 0.00 75 1010.5
20260509083052 56 232 0.0 0.0 0.00 0.00 0.00 76 1010.7
20260509081554 56 233 0.0 0.0 0.00 0.00 0.00 76 1010.7
20260509080051 55 233 0.0 0.0 0.00 0.00 0.00 77 1010.8
20260509074553 55 232 0.0 0.0 0.00 0.00 0.00 78 1010.7
20260509073050 55 232 0.0 1.0 0.00 0.00 0.00 77 1010.9
20260509071553 55 62 0.0 1.0 0.00 0.00 0.00 78 1010.9
20260509070055 55 312 0.0 1.0 0.00 0.00 0.00 79 1010.8
20260509064551 54 311 0.0 1.0 0.00 0.00 0.00 81 1010.5
20260509063045 54 311 0.0 1.0 0.00 0.00 0.00 82 1010.5
20260509061555 54 311 0.0 0.0 0.00 0.00 0.00 81 1010.7
20260509060050 54 312 0.0 0.0 0.00 0.00 0.00 79 1011.0
20260509054546 55 311 0.0 1.0 0.00 0.00 0.00 78 1011.2